[Iaude] MPEC U09: 2017 TG5 [a=0.76,e=0.46,i=11.6,H=25.3]

mpec at mpcdb1.cfa.harvard.edu mpec at mpcdb1.cfa.harvard.edu
Sun Oct 15 21:11:16 EDT 2017


M.P.E.C. 2017-U09                                Issued 2017 Oct. 16, 01:07 UT
 
     The Minor Planet Electronic Circulars contain information on unusual
         minor planets and routine data on comets.  They are published
    on behalf of Division F of the International Astronomical Union by the
          Minor Planet Center, Smithsonian Astrophysical Observatory,
                          Cambridge, MA 02138, U.S.A.

             Prepared using the Tamkin Foundation Computer Network

                              MPC at CFA.HARVARD.EDU
            URL http://www.minorplanetcenter.net/    ISSN 1523-6714


                                   2017 TG5
 
Observations:
     K17T05G* C2017 10 14.45498 01 58 13.87 +14 44 29.2                UEU009G96
     K17T05G  C2017 10 14.45978 01 58 10.48 +14 43 35.4          19.9 GUEU009G96
     K17T05G  C2017 10 14.46454 01 58 07.22 +14 42 43.1          20.2 GUEU009G96
     K17T05G  C2017 10 14.46927 01 58 03.95 +14 41 50.5          19.9 GUEU009G96
     K17T05G  C2017 10 14.48020 01 57 56.36 +14 39 48.0          19.9 GUEU009G96
     K17T05G  C2017 10 14.48061 01 57 56.09 +14 39 43.9          20.0 GUEU009G96
     K17T05G  C2017 10 14.48102 01 57 55.80 +14 39 39.1          19.7 GUEU009G96
     K17T05G  C2017 10 14.48142 01 57 55.54 +14 39 35.0          20.0 GUEU009G96
     K17T05G  C2017 10 14.48614 01 57 52.28 +14 38 42.1          19.8 GUEU009G96
     K17T05G  C2017 10 14.48654 01 57 51.97 +14 38 37.1          19.5 GUEU009G96
     K17T05G  C2017 10 14.48695 01 57 51.69 +14 38 33.0          19.7 GUEU009G96
     K17T05G  C2017 10 14.48735 01 57 51.42 +14 38 28.5          19.9 GUEU009G96
     K17T05G KC2017 10 14.85748 01 53 51.81 +13 28 33.3          19.6  UEU009104
     K17T05G KC2017 10 14.86569 01 53 45.95 +13 26 59.7          19.9  UEU009104
     K17T05G KC2017 10 14.87276 01 53 40.87 +13 25 38.3          19.8  UEU009104
     K17T05G KC2017 10 14.97023 01 52 28.89 +13 06 41.2          19.5  oEU009K88
     K17T05G KC2017 10 14.97354 01 52 26.48 +13 06 02.7          19.2  oEU009K88
     K17T05G KC2017 10 14.97682 01 52 24.08 +13 05 24.0          19.1  oEU009K88
     K17T05G KC2017 10 15.00036 01 52 07.70 +13 00 54.8          19.9  tEU009K63
     K17T05G KC2017 10 15.00247 01 52 06.13 +13 00 29.4          19.8  tEU009K63
     K17T05G KC2017 10 15.00490 01 52 04.35 +13 00 01.0          19.9  tEU009K63
     K17T05G  C2017 10 15.31801 01 48 23.95 +11 57 50.6          20.1 GUEU009G96
     K17T05G  C2017 10 15.32320 01 48 20.01 +11 56 46.9          20.1 GUEU009G96
     K17T05G  C2017 10 15.32841 01 48 16.02 +11 55 42.9          20.3 GUEU009G96
     K17T05G  C2017 10 15.33369 01 48 11.94 +11 54 38.1          20.4 GUEU009G96
     K17T05G  C2017 10 15.40920 01 47 14.11 +11 39 07.4          19.8 RoEU009926
     K17T05G  C2017 10 15.41139 01 47 12.53 +11 38 41.2          19.5 RoEU009926
     K17T05G  C2017 10 15.41358 01 47 10.84 +11 38 14.0          20.0 RoEU009926
     K17T05G  C2017 10 15.43053 01 46 57.93 +11 34 39.6          19.4 GUEU009I52
     K17T05G  C2017 10 15.43150 01 46 57.18 +11 34 27.2          19.8 GUEU009I52
     K17T05G  C2017 10 15.43248 01 46 56.46 +11 34 15.1          19.5 GUEU009I52
     K17T05G  C2017 10 15.43349 01 46 55.68 +11 34 02.5          19.6 GUEU009I52
     K17T05G  C2017 10 15.85279 01 41 55.94 +10 04 44.3          19.3 RqEU009246
     K17T05G  C2017 10 15.85363 01 41 55.21 +10 04 32.6          19.7 RqEU009246
     K17T05G  C2017 10 15.85441 01 41 54.62 +10 04 23.7          19.4 RqEU009246
     K17T05G  C2017 10 15.85686 01 41 52.70 +10 03 51.9          19.5 RqEU009246
 
Observer details:
104 San Marcello Pistoiese.  Observers P. Bacci, M. Maestripieri, M. D. Grazia,
    N. Fie.  Measurers P. Bacci, L. Tesi, G. Fagioli.  0.60-m reflector + CCD.
246 Klet Observatory-KLENOT.  Observers M. Tichy, J. Ticha.  Measurer M. Tichy.
    1.06-m KLENOT Telescope + CCD.
926 Tenagra II Observatory.  Observers M. Schwartz, P. R. Holvorcem.  Measurer
    M. Schwartz.  0.81-m f/7 Ritchey-Chretien + CCD.
G96 Mt. Lemmon Survey.  Observers J. A. Johnson, A. D. Grauer.  Measurers
    E. J. Christensen, D. C. Fuls, A. R. Gibbs, A. D. Grauer, J. A. Johnson,
    R. A. Kowalski, S. M. Larson, G. J. Leonard, R. G. Matheny, R. L. Seaman,
    F. C. Shelly.  1.5-m reflector + 10K CCD.
I52 Steward Observatory, Mt. Lemmon Station.  Observer R. G. Matheny.
    Measurers E. J. Christensen, D. C. Fuls, A. R. Gibbs, A. D. Grauer,
    J. A. Johnson, R. A. Kowalski, S. M. Larson, G. J. Leonard, R. G. Matheny,
    R. L. Seaman, F. C. Shelly.  1.0-m reflector + CCD.
K63 G. Pascoli Observatory, Castelvecchio Pascoli.  Observer R. Bacci.  0.40-m
    f/3.2 Newtonian reflector + CCD.
K88 GINOP-KHK, Piszkesteto.  Observer K. Sarneczky.  0.60-m Schmidt + CCD.
 
Orbital elements:
2017 TG5                                                 Earth MOID = 0.0362 AU
Epoch 2017 Sept. 4.0 TT = JDT 2458000.5                 MPC
M 160.89013              (2000.0)            P               Q
n   1.48680506     Peri.  341.54579     -0.99490961     +0.06478608
a   0.7602680      Node   202.59549     -0.04642814     -0.97450611
e   0.4571346      Incl.   11.58889     -0.08943881     -0.21480366
P   0.66           H   25.3           G   0.15           U   9
Residuals in seconds of arc
171014 G96  0.3+  0.1+    171014 104  0.6-  0.4-    171015 G96  0.4-  0.1+
171014 G96  0.5-  0.4-    171014 104  0.3-  0.1+    171015 926  0.7-  0.1-
171014 G96  0.2+  0.2+    171014 104  0.2-  0.1-    171015 926  0.6+  0.9+
171014 G96  0.4+  0.3+    171014 K88  0.0   0.2+    171015 926  0.3+  1.0+
171014 G96  0.1+  0.4-    171014 K88  0.2+  0.5+    171015 I52  0.3-  0.0
171014 G96  0.3+  0.1+    171014 K88  0.3+  0.3+    171015 I52  0.5-  0.3-
171014 G96  0.2+  0.2-    171015 K63  0.4-  0.1+    171015 I52  0.1-  0.2-
171014 G96  0.4+  0.2+    171015 K63  0.6-  0.4-    171015 I52  0.3-  0.1-
171014 G96  0.4+  0.0     171015 K63  0.4-  0.2-    171015 246  1.1+  0.3-
171014 G96  0.1-  0.6-    171015 G96  0.2-  0.6+    171015 246  0.0   1.2-
171014 G96  0.0   0.1-    171015 G96  0.3+  0.4+    171015 246  0.2+  0.0
171014 G96  0.1+  0.1-    171015 G96  0.2+  0.2+    171015 246  0.1+  0.0

Ephemeris:
2017 TG5                 a,e,i = 0.76, 0.46, 12                  q = 0.4127
Date    TT    R. A. (2000) Decl.     Delta      r     Elong.  Phase     V
2017 09 16    03 42 10.5 +38 06 05   0.2350  1.1078   109.9    58.6    24.5
...
2017 10 01    03 21 39.1 +33 56 49   0.1422  1.0968   129.3    45.0    23.0
...
2017 10 09    02 45 27.5 +26 33 52   0.09581 1.0807   147.2    30.0    21.7
...
2017 10 15    01 52 09.2 +13 02 15   0.06750 1.0639   170.8     8.6    20.2
2017 10 16    01 40 01.5 +09 34 13   0.06393 1.0607   175.9     3.9    19.8
2017 10 17    01 26 49.9 +05 41 32   0.06084 1.0574   176.5     3.3    19.7
...
2017 10 23    23 47 24.2 -22 28 10   0.05588 1.0351   134.8    43.0    20.8
...
2017 10 31    21 29 22.4 -44 29 03   0.08155 0.9990    92.0    83.3    22.8
...
2017 11 15    19 15 15.9 -50 12 10   0.1575  0.9107    56.0   115.7    25.6

A. U. Tomatic                (C) Copyright 2017 MPC           M.P.E.C. 2017-U09




More information about the Iaude mailing list